NEW HAVEN/TWEED, CT current weather conditions

sailwx.info

Wind from 320 at 8 knots

Air temperature 2.0° C
Visibility: greater than 8.7 NM
Dewpoint -10.0° C

Last reported at 2019-Dec-12 18:05 UTC.
Time now 2019-Dec-12 18:41 UTC

Location: N 41°16' W 072°53'.
View on Google Maps.

See reports from other nearby stations

  
Tides and Currents Weather Stations Pressure Air Temp Water Temp Dewpoint Dewpoint Depression Visibility Wind Speed Wind Dir Waves Ship Positions
date/time (UTC)wind fromknots sea level pressurealtimeterstation pressurevisibilityair tempwater tempwave heightnotes
2019-Dec-12 18:05 320 8 8.7 2.0
2019-Dec-12 18:00 320 9 8.7 2.0
2019-Dec-12 17:55 330 8 8.7 2.0
2019-Dec-12 17:53 320 6 8.7 1.7
2019-Dec-12 17:50 360 6 8.7 2.0
2019-Dec-12 17:45 340 7 8.7 1.0
2019-Dec-12 17:40 360 8 8.7 2.0
2019-Dec-12 17:35 320 8 8.7 2.0
2019-Dec-12 17:30 360 10 gusting 18 8.7 1.0
2019-Dec-12 17:25 340 8 8.7 2.0
2019-Dec-12 17:20 010 9 8.7 1.0
2019-Dec-12 17:15 350 9 8.7 1.0
2019-Dec-12 17:10 360 9 8.7 1.0
2019-Dec-12 17:05 330 6 8.7 1.0
2019-Dec-12 17:00 360 8 8.7 1.0
2019-Dec-12 16:55 010 8 8.7 1.0
2019-Dec-12 16:53 020 7 8.7 0.6
2019-Dec-12 16:50 360 9 8.7 1.0
2019-Dec-12 16:45 360 8 8.7 1.0
2019-Dec-12 16:40 010 8 8.7 1.0
2019-Dec-12 16:35 350 7 8.7 1.0
2019-Dec-12 16:30 330 5 8.7 1.0
2019-Dec-12 16:25 330 7 8.7 1.0
2019-Dec-12 16:20 010 6 8.7 1.0
2019-Dec-12 16:15 330 8 8.7 1.0
2019-Dec-12 16:10 350 7 8.7 1.0
2019-Dec-12 16:05 330 7 8.7 1.0
2019-Dec-12 16:00 350 9 8.7 1.0
2019-Dec-12 15:55 360 8 8.7 1.0
2019-Dec-12 15:53 8.7-0.0
2019-Dec-12 15:50 320 8 8.7-0.0
2019-Dec-12 15:45 320 8 8.7-0.0
2019-Dec-12 15:40 330 8 8.7-0.0
2019-Dec-12 15:35 340 6 8.7-0.0
2019-Dec-12 15:30 340 5 8.7-0.0
2019-Dec-12 15:25 360 4 8.7-0.0
2019-Dec-12 15:20 320 4 8.7-1.0
2019-Dec-12 15:15 350 5 8.7-1.0
2019-Dec-12 15:10 320 4 8.7-1.0
2019-Dec-12 15:05 340 6 8.7-1.0
2019-Dec-12 15:00 350 5 8.7-1.0
2019-Dec-12 14:55 320 6 8.7-1.0
2019-Dec-12 14:53 320 5 8.7-0.6
2019-Dec-12 14:50 320 6 8.7-1.0
2019-Dec-12 14:45 330 5 8.7-1.0
2019-Dec-12 14:40 330 6 8.7-1.0
2019-Dec-12 14:35 310 6 8.7-1.0
2019-Dec-12 14:30 310 5 8.7-1.0
2019-Dec-12 14:25 310 5 8.7-1.0
2019-Dec-12 14:20 310 5 8.7-1.0
2019-Dec-12 14:15 290 6 8.7-2.0
2019-Dec-12 14:10 290 5 8.7-1.0
2019-Dec-12 14:05 290 5 8.7-2.0
2019-Dec-12 14:00 300 4 8.7-2.0
2019-Dec-12 13:55 280 4 8.7-2.0
2019-Dec-12 13:53 8.7-1.7
2019-Dec-12 13:50 300 4 8.7-2.0
2019-Dec-12 13:45 270 4 8.7-2.0
2019-Dec-12 13:40 300 4 8.7-2.0
2019-Dec-12 13:35 310 5 8.7-2.0
2019-Dec-12 13:30 310 4 8.7-2.0
2019-Dec-12 13:25 280 3 8.7-2.0
2019-Dec-12 13:20 300 4 8.7-2.0
2019-Dec-12 13:15 270 5 8.7-2.0
2019-Dec-12 13:10 280 4 8.7-2.0
2019-Dec-12 13:05 290 3 8.7-2.0
2019-Dec-12 13:00 290 3 8.7-2.0
2019-Dec-12 12:55 280 3 8.7-2.0
2019-Dec-12 12:53 8.7-2.2
2019-Dec-12 12:50 280 5 8.7-2.0
2019-Dec-12 12:45 280 4 8.7-3.0
2019-Dec-12 12:40 280 4 8.7-3.0
2019-Dec-12 12:35 310 3 8.7-3.0
2019-Dec-12 12:30 8.7-3.0
2019-Dec-12 12:25 8.7-3.0
2019-Dec-12 12:20 300 4 8.7-3.0
2019-Dec-12 12:15 320 3 8.7-3.0
2019-Dec-12 12:10 330 3 8.7-3.0
2019-Dec-12 12:05 350 4 8.7-3.0
2019-Dec-12 12:00 360 4 8.7-3.0
2019-Dec-12 11:55 320 4 8.7-3.0
2019-Dec-12 11:53 310 5 8.7-2.8
2019-Dec-12 11:50 320 4 8.7-3.0
2019-Dec-12 11:45 320 5 8.7-3.0
2019-Dec-12 11:40 320 5 8.7-3.0
2019-Dec-12 11:35 320 5 8.7-3.0
2019-Dec-12 11:30 340 4 8.7-3.0
2019-Dec-12 11:25 320 3 8.7-3.0
2019-Dec-12 11:20 320 5 8.7-2.0
2019-Dec-12 11:15 310 5 8.7-2.0
2019-Dec-12 11:10 300 5 8.7-2.0
2019-Dec-12 11:05 300 6 8.7-2.0
2019-Dec-12 11:00 300 5 8.7-2.0
2019-Dec-12 10:55 310 7 8.7-2.0
2019-Dec-12 10:53 300 6 8.7-2.2
2019-Dec-12 10:50 290 6 8.7-2.0
2019-Dec-12 10:45 300 6 8.7-2.0
2019-Dec-12 10:40 300 7 8.7-2.0
2019-Dec-12 10:35 300 7 8.7-2.0
2019-Dec-12 10:30 310 6 8.7-2.0
2019-Dec-12 10:25 310 6 8.7-2.0
2019-Dec-12 10:20 320 6 8.7-2.0
2019-Dec-12 10:15 310 6 8.7-2.0
2019-Dec-12 10:10 310 5 8.7-2.0
2019-Dec-12 10:05 310 6 8.7-2.0
2019-Dec-12 10:00 330 4 8.7-2.0
2019-Dec-12 09:55 330 4 8.7-2.0
2019-Dec-12 09:53 320 5 8.7-1.7
2019-Dec-12 09:50 310 4 8.7-2.0
2019-Dec-12 09:45 310 7 8.7-2.0
2019-Dec-12 09:40 310 7 8.7-2.0
2019-Dec-12 09:35 310 7 8.7-2.0
2019-Dec-12 09:30 310 7 8.7-2.0
2019-Dec-12 09:25 300 5 8.7-2.0
2019-Dec-12 09:20 300 5 8.7-2.0
2019-Dec-12 09:15 310 5 8.7-2.0
2019-Dec-12 09:10 320 5 8.7-2.0
2019-Dec-12 09:05 310 4 8.7-2.0
2019-Dec-12 09:00 310 4 8.7-2.0
2019-Dec-12 08:55 320 6 8.7-2.0
2019-Dec-12 08:53 330 6 8.7-1.7
2019-Dec-12 08:50 320 6 8.7-2.0
2019-Dec-12 08:45 320 6 8.7-2.0
2019-Dec-12 08:40 310 5 8.7-1.0
2019-Dec-12 08:35 320 5 8.7-1.0
2019-Dec-12 08:30 310 6 8.7-1.0
2019-Dec-12 08:25 320 7 8.7-1.0
2019-Dec-12 08:20 310 7 8.7-1.0
2019-Dec-12 08:15 320 6 8.7-1.0
2019-Dec-12 08:10 320 7 8.7-1.0
2019-Dec-12 08:05 320 5 8.7-1.0
2019-Dec-12 08:00 320 7 8.7-1.0
2019-Dec-12 07:55 310 6 8.7-1.0
2019-Dec-12 07:53 320 8 8.7-1.1
2019-Dec-12 07:50 320 6 8.7-1.0
2019-Dec-12 07:45 320 6 8.7-1.0
2019-Dec-12 07:40 320 7 8.7-1.0
2019-Dec-12 07:35 320 7 8.7-1.0
2019-Dec-12 07:30 330 8 8.7-1.0
2019-Dec-12 07:25 320 8 8.7-1.0
2019-Dec-12 07:20 330 6 8.7-1.0
2019-Dec-12 07:15 320 9 8.7-0.0
2019-Dec-12 07:10 320 8 8.7-0.0
2019-Dec-12 07:05 330 9 8.7-0.0
2019-Dec-12 07:00 330 6 8.7-0.0
2019-Dec-12 06:55 320 7 8.7-0.0
2019-Dec-12 06:53 330 8 8.7-0.0
2019-Dec-12 06:50 320 6 8.7-0.0
2019-Dec-12 06:45 320 8 8.7-0.0
2019-Dec-12 06:40 320 7 8.7-0.0
2019-Dec-12 06:35 320 9 8.7-0.0
2019-Dec-12 06:30 320 10 8.7 1.0
2019-Dec-12 06:25 320 11 8.7 1.0
2019-Dec-12 06:20 320 10 8.7 1.0
2019-Dec-12 06:15 320 14 8.7 1.0
2019-Dec-12 06:10 320 14 gusting 23 8.7 1.0
2019-Dec-12 06:05 320 16 gusting 22 8.7 1.0
2019-Dec-12 06:00 320 15 gusting 20 8.7 1.0
2019-Dec-12 05:55 310 14 gusting 19 8.7 1.0
2019-Dec-12 05:53 320 13 gusting 24 8.7 1.1
2019-Dec-12 05:50 310 11 gusting 18 8.7 1.0
2019-Dec-12 05:45 310 11 gusting 19 8.7 1.0
2019-Dec-12 05:40 310 7 8.7 1.0
2019-Dec-12 05:35 310 7 8.7 1.0
2019-Dec-12 05:30 300 6 8.7 1.0
2019-Dec-12 05:25 310 10 gusting 17 8.7 1.0
2019-Dec-12 05:20 310 9 8.7 1.0
2019-Dec-12 05:15 300 7 8.7 1.0
2019-Dec-12 05:10 290 4 8.7 1.0
2019-Dec-12 05:05 270 6 8.7 1.0
2019-Dec-12 05:00 290 7 8.7 1.0
2019-Dec-12 04:55 310 7 8.7 1.0
2019-Dec-12 04:53 300 6 8.7 1.1
2019-Dec-12 04:50 300 7 8.7 1.0
2019-Dec-12 04:45 280 7 8.7 1.0
2019-Dec-12 04:40 290 5 8.7 1.0
2019-Dec-12 04:35 290 7 8.7 1.0
2019-Dec-12 04:30 290 9 8.7 1.0
2019-Dec-12 04:25 280 7 8.7 1.0
2019-Dec-12 04:20 280 9 8.7 1.0
2019-Dec-12 04:15 280 6 8.7 1.0
2019-Dec-12 04:10 280 7 8.7 1.0
2019-Dec-12 04:05 280 7 8.7 1.0
2019-Dec-12 04:00 280 6 8.7 1.0
2019-Dec-12 03:55 280 8 8.7 2.0
2019-Dec-12 03:53 280 6 8.7 1.7
2019-Dec-12 03:50 280 6 8.7 2.0
2019-Dec-12 03:45 280 7 8.7 2.0
2019-Dec-12 03:40 270 7 8.7 2.0
2019-Dec-12 03:35 280 8 8.7 2.0
2019-Dec-12 03:30 280 7 8.7 2.0
2019-Dec-12 03:25 300 8 8.7 2.0
2019-Dec-12 03:20 290 7 8.7 2.0
2019-Dec-12 03:15 270 7 8.7 2.0
2019-Dec-12 03:10 290 6 8.7 2.0
2019-Dec-12 03:05 290 9 8.7 2.0
2019-Dec-12 03:00 290 8 8.7 2.0
2019-Dec-12 02:55 280 8 8.7 2.0
2019-Dec-12 02:53 280 8 8.7 1.7
2019-Dec-12 02:50 280 8 8.7 2.0
2019-Dec-12 02:45 280 9 8.7 2.0
2019-Dec-12 02:40 280 7 8.7 2.0
2019-Dec-12 02:35 280 7 8.7 2.0
2019-Dec-12 02:30 280 8 8.7 2.0
2019-Dec-12 02:25 270 8 8.7 2.0
2019-Dec-12 02:20 270 6 8.7 2.0
2019-Dec-12 02:15 280 9 8.7 2.0
2019-Dec-12 02:10 280 8 8.7 2.0
2019-Dec-12 02:05 280 8 8.7 2.0
2019-Dec-12 02:00 280 8 8.7 2.0
2019-Dec-12 01:55 280 5 8.7 3.0
2019-Dec-12 01:53 280 8 gusting 17 8.7 2.8
2019-Dec-12 01:50 280 9 gusting 17 8.7 3.0
2019-Dec-12 01:45 260 5 8.7 3.0
2019-Dec-12 01:40 260 7 8.7 3.0
2019-Dec-12 01:35 260 9 gusting 15 8.7 3.0
2019-Dec-12 01:30 260 6 8.7 3.0
2019-Dec-12 01:25 250 9 8.7 3.0
2019-Dec-12 01:20 250 8 8.7 3.0
2019-Dec-12 01:15 250 9 8.7 3.0
2019-Dec-12 01:10 260 8 8.7 3.0
2019-Dec-12 01:05 250 6 8.7 3.0
2019-Dec-12 01:00 260 8 8.7 3.0
2019-Dec-12 00:55 250 9 8.7 3.0
2019-Dec-12 00:53 250 12 gusting 19 8.7 3.3
2019-Dec-12 00:50 250 7 8.7 3.0
2019-Dec-12 00:45 250 9 8.7 3.0
2019-Dec-12 00:40 250 10 8.7 3.0
2019-Dec-12 00:35 250 10 gusting 15 8.7 3.0
2019-Dec-12 00:30 250 8 8.7 3.0
2019-Dec-12 00:25 240 11 gusting 16 8.7 3.0
2019-Dec-12 00:20 240 9 8.7 3.0
2019-Dec-12 00:15 250 10 8.7 3.0
2019-Dec-12 00:10 240 11 gusting 16 8.7 3.0
2019-Dec-12 00:05 240 10 gusting 15 8.7 3.0
2019-Dec-12 00:00 240 12 8.7 4.0
2019-Dec-11 23:55 240 12 gusting 17 8.7 4.0
2019-Dec-11 23:53 240 13 gusting 19 8.7 3.9
2019-Dec-11 23:50 240 10 gusting 15 8.7 3.0
2019-Dec-11 23:45 250 10 gusting 15 8.7 3.0
2019-Dec-11 23:40 240 8 8.7 3.0
2019-Dec-11 23:35 240 8 8.7 3.0
2019-Dec-11 23:30 240 9 8.7 3.0
2019-Dec-11 23:25 240 7 8.7 3.0
2019-Dec-11 23:20 240 9 8.7 3.0
2019-Dec-11 23:15 240 8 8.7 3.0
2019-Dec-11 23:10 250 6 8.7 3.0
2019-Dec-11 23:05 260 6 8.7 3.0
2019-Dec-11 23:00 250 6 8.7 3.0
2019-Dec-11 22:55 250 6 8.7 3.0
2019-Dec-11 22:53 280 5 8.7 2.8
2019-Dec-11 22:50 280 5 gusting 19 8.7 3.0
2019-Dec-11 22:45 260 5 8.7 3.0
2019-Dec-11 22:40 260 6 8.7 3.0
2019-Dec-11 22:35 260 4 8.7 3.0
2019-Dec-11 22:30 260 4 8.7 3.0
2019-Dec-11 22:25 260 5 8.7 3.0
2019-Dec-11 22:20 260 5 8.7 3.0
2019-Dec-11 22:15 260 5 8.7 3.0
2019-Dec-11 22:10 8.7 3.0
2019-Dec-11 22:05 270 4 8.7 3.0
2019-Dec-11 22:00 260 4 8.7 3.0
2019-Dec-11 21:55 270 6 8.7 3.0
2019-Dec-11 21:53 250 7 8.7 2.8
2019-Dec-11 21:50 250 8 gusting 19 8.7 3.0
2019-Dec-11 21:45 260 7 8.7 3.0
2019-Dec-11 21:40 250 6 8.7 3.0
2019-Dec-11 21:35 260 5 8.7 3.0
2019-Dec-11 21:30 250 6 8.7 3.0
2019-Dec-11 21:25 240 5 8.7 3.0
2019-Dec-11 21:20 240 6 8.7 3.0
2019-Dec-11 21:15 230 4 8.7 3.0
2019-Dec-11 21:10 250 4 8.7 3.0
2019-Dec-11 21:05 250 5 8.7 3.0
2019-Dec-11 21:00 250 6 8.7 3.0
2019-Dec-11 20:55 240 5 8.7 3.0
2019-Dec-11 20:53 240 6 8.7 2.8
2019-Dec-11 20:50 240 7 gusting 19 8.7 3.0
2019-Dec-11 20:45 240 4 8.7 3.0
2019-Dec-11 20:40 230 6 8.7 3.0
2019-Dec-11 20:35 240 3 8.7 3.0
2019-Dec-11 20:30 230 3 8.7 3.0
2019-Dec-11 20:25 220 5 8.7 3.0
2019-Dec-11 20:20 230 3 8.7 3.0
2019-Dec-11 20:15 240 4 8.7 3.0
2019-Dec-11 20:10 240 5 8.7 3.0
2019-Dec-11 20:05 240 5 8.7 3.0
2019-Dec-11 20:00 250 4 8.7 3.0
2019-Dec-11 19:55 230 4 8.7 3.0
2019-Dec-11 19:53 240 5 8.7 2.8
2019-Dec-11 19:50 240 5 gusting 19 8.7 3.0
2019-Dec-11 19:45 250 5 8.7 3.0
2019-Dec-11 19:40 240 4 8.7 3.0
2019-Dec-11 19:35 240 5 8.7 3.0
2019-Dec-11 19:30 240 5 8.7 3.0
2019-Dec-11 19:25 240 5 8.7 3.0
2019-Dec-11 19:20 260 4 8.7 3.0
2019-Dec-11 19:15 240 3 8.7 2.0
2019-Dec-11 19:10 250 3 8.7 2.0
2019-Dec-11 19:05 280 5 8.7 3.0
2019-Dec-11 19:00 260 4 8.7 2.0
2019-Dec-11 18:55 280 5 8.7 2.0
2019-Dec-11 18:53 280 6 8.7 2.2
2019-Dec-11 18:50 280 7 gusting 19 8.7 2.0
2019-Dec-11 18:45 280 7 gusting 19 8.7 2.0
2019-Dec-11 18:40 270 5 8.7 2.0
2019-Dec-11 18:35 290 4 8.7 2.0
2019-Dec-11 18:30 290 4 8.7 2.0
2019-Dec-11 18:25 300 3 8.7 2.0
2019-Dec-11 18:20 280 3 8.7 2.0
2019-Dec-11 18:15 280 3 8.7 2.0
2019-Dec-11 18:10 240 4 8.7 2.0
2019-Dec-11 18:05 8.7 2.0
2019-Dec-11 18:00 250 5 8.7 2.0
2019-Dec-11 17:55 8.7 2.0
2019-Dec-11 17:53 210 4 8.7 1.7
2019-Dec-11 17:50 210 4 gusting 19 8.7 2.0
2019-Dec-11 17:45 220 3 8.7 2.0
2019-Dec-11 17:40 230 3 8.7 1.0
2019-Dec-11 17:35 8.7 1.0
2019-Dec-11 17:30 260 3 8.7 1.0
2019-Dec-11 17:25 270 3 8.7 1.0
2019-Dec-11 17:20 8.7 1.0
2019-Dec-11 17:15 8.7 1.0
2019-Dec-11 17:10 270 3 8.7 1.0
2019-Dec-11 17:05 8.7 1.0
2019-Dec-11 17:00 240 3 8.7 1.0
2019-Dec-11 16:55 8.7 1.0
2019-Dec-11 16:53 290 5 8.7 1.1
2019-Dec-11 16:50 290 5 gusting 19 8.7 1.0
2019-Dec-11 16:45 230 3 8.7 1.0
2019-Dec-11 16:40 230 3 8.7 1.0
2019-Dec-11 16:35 8.7 1.0
2019-Dec-11 16:30 290 3 8.7 1.0
2019-Dec-11 16:25 290 4 8.7 1.0
2019-Dec-11 16:20 8.7 1.0
2019-Dec-11 16:15 8.7-0.0
2019-Dec-11 16:10 8.7-0.0
2019-Dec-11 16:05 8.7-0.0
2019-Dec-11 16:00 8.7-0.0
2019-Dec-11 15:55 8.7-1.0
2019-Dec-11 15:53 8.7-0.6
2019-Dec-11 15:50 8.7-1.0
2019-Dec-11 15:45 8.7-1.0
2019-Dec-11 15:40 8.7-1.0
2019-Dec-11 15:35 8.7-1.0
2019-Dec-11 15:30 8.7-1.0
2019-Dec-11 15:25 8.7-1.0
2019-Dec-11 15:20 8.7-1.0
2019-Dec-11 15:15 8.7-1.0
2019-Dec-11 15:11 8.7-0.6
2019-Dec-11 15:10 8.7-1.0
2019-Dec-11 15:05 7.8-1.0
2019-Dec-11 15:00 050 3 5.2-1.0 Light snow.
2019-Dec-11 14:58 060 4 2.6-1.1 Light snow.
2019-Dec-11 14:55 050 4 1.3-1.0 Light snow.
2019-Dec-11 14:53 060 2 1.1-1.1 Light snow. Mist.
2019-Dec-11 14:50 040 5 0.9-1.0 Light snow.
2019-Dec-11 14:45 010 4 0.9-1.0 Light snow.
2019-Dec-11 14:40 350 4 1.1-1.0 Light snow.
2019-Dec-11 14:35 340 4 0.9-1.0 Light snow.
2019-Dec-11 14:30 350 6 1.1-1.0 Light snow.
2019-Dec-11 14:25 350 5 1.3-1.0 Light snow.
2019-Dec-11 14:20 340 6 1.3-1.0 Light snow.
2019-Dec-11 14:15 340 5 1.5-0.0 Light snow.
2019-Dec-11 14:10 340 5 2.2-0.0 Light snow.
2019-Dec-11 14:05 350 7 2.2-0.0 Light snow.
2019-Dec-11 14:00 340 5 2.6-0.0 Light snow.
2019-Dec-11 13:55 340 5 3.5-0.0 Light snow.
2019-Dec-11 13:53 350 6 4.3-0.0 Light snow.
2019-Dec-11 13:50 350 6 4.3-0.0 Light snow.
2019-Dec-11 13:45 360 8 5.2-0.0 Light snow.
2019-Dec-11 13:40 350 7 6.1 1.0 Light snow.
2019-Dec-11 13:35 350 6 7.0 1.0 Light snow.
2019-Dec-11 13:30 350 6 8.7 1.0
2019-Dec-11 13:25 340 5 8.7 1.0
2019-Dec-11 13:20 350 5 8.7 1.0
2019-Dec-11 13:15 350 5 8.7 1.0
2019-Dec-11 13:10 350 6 8.7 1.0
2019-Dec-11 13:05 350 4 8.7 1.0
2019-Dec-11 13:00 350 3 8.7 1.0
2019-Dec-11 12:55 360 5 8.7 1.0
2019-Dec-11 12:53 360 4 8.7 0.6
2019-Dec-11 12:50 010 4 8.7 1.0
2019-Dec-11 12:45 010 4 8.7 1.0
2019-Dec-11 12:40 360 3 7.8 1.0
2019-Dec-11 12:35 010 5 7.0 1.0 Light snow.
2019-Dec-11 12:30 010 5 7.0 1.0 Light snow.
2019-Dec-11 12:25 010 7 7.8 1.0
2019-Dec-11 12:20 010 8 8.7 1.0
2019-Dec-11 12:15 010 8 8.7 1.0
2019-Dec-11 12:14 010 6 8.7 0.6
2019-Dec-11 12:10 010 7 8.7 1.0
2019-Dec-11 12:05 010 6 7.0 1.0
2019-Dec-11 12:04 010 6 6.1 0.6
2019-Dec-11 12:00 350 4 3.5 1.0 Light snow. Mist.
2019-Dec-11 11:55 030 5 2.2 1.0 Light snow. Mist.
2019-Dec-11 11:53 020 6 2.2 0.6 Light snow. Mist.
2019-Dec-11 11:50 020 7 2.2 1.0 Light snow. Mist.
2019-Dec-11 11:45 010 9 6.1 1.0
2019-Dec-11 11:41 360 7 6.1 0.6
2019-Dec-11 11:40 360 8 6.1 1.0 Light snow.
2019-Dec-11 11:35 010 8 2.6-0.0 Light snow. Mist.
2019-Dec-11 11:30 020 8 1.7-0.0 Light snow. Mist.
2019-Dec-11 11:29 010 7 1.7-0.0 Light snow. Mist.
2019-Dec-11 11:25 360 9 1.5-0.0 Light snow. Mist.
2019-Dec-11 11:20 350 12 0.9-0.0 Light snow. Mist.
2019-Dec-11 11:15 340 11 gusting 16 0.9-0.0 Light snow. Mist.
2019-Dec-11 11:10 350 10 0.9-0.0 Light snow. Mist.
2019-Dec-11 11:05 350 11 0.9 1.0 Light snow. Mist.
2019-Dec-11 11:02 350 11 gusting 20 0.9 0.6 Light snow. Mist.
2019-Dec-11 11:00 360 13 gusting 19 0.9 1.0 Light snow. Mist.
2019-Dec-11 10:55 360 13 0.7 1.0 Light snow. Mist.
2019-Dec-11 10:53 360 14 0.7 0.6 Light snow. Mist.
2019-Dec-11 10:51 360 13 0.7 1.0 Light snow. Mist.
2019-Dec-11 10:50 360 13 0.7 1.0 Light snow. Mist.
2019-Dec-11 10:45 010 15 0.7 1.0 Light snow. Mist.
2019-Dec-11 10:41 360 14 0.9 0.6 Light snow. Mist.
2019-Dec-11 10:40 010 15 0.9 1.0 Light snow. Mist.
2019-Dec-11 10:35 010 15 0.9 1.0 Light snow. Mist.
2019-Dec-11 10:30 010 14 gusting 20 0.7 1.0 Light snow. Mist.
2019-Dec-11 10:25 010 11 0.7 1.0 Light snow. Mist.
2019-Dec-11 10:20 010 13 0.7 1.0 Light snow. Mist.
2019-Dec-11 10:15 010 11 0.7 1.0 Light snow. Mist.
2019-Dec-11 10:10 360 11 0.7 1.0 Light snow. Mist.
2019-Dec-11 10:05 360 11 0.7 1.0 Light snow. Mist.
2019-Dec-11 10:00 360 12 0.7 1.0 Light snow. Mist.
2019-Dec-11 09:55 360 12 0.7 1.0 Light snow. Mist.
2019-Dec-11 09:53 350 14 gusting 20 0.7 1.1 Light snow. Mist.
2019-Dec-11 09:50 360 13 gusting 18 0.4 1.0 Snow. Fog.
2019-Dec-11 09:45 360 11 0.4 2.0 Snow. Fog.
2019-Dec-11 09:40 360 12 gusting 18 0.7 2.0 Light snow. Mist.
2019-Dec-11 09:39 360 11 gusting 20 0.7 1.7 Light snow. Mist.
2019-Dec-11 09:35 360 11 0.7 2.0 Light snow. Mist.
2019-Dec-11 09:31 010 13 gusting 19 0.9 1.7 Light snow. Mist.
2019-Dec-11 09:30 010 15 0.9 2.0 Light snow. Mist.
2019-Dec-11 09:25 360 8 1.3 2.0 Light snow. Mist.
2019-Dec-11 09:20 340 7 1.5 2.0 Light snow. Mist.
2019-Dec-11 09:15 350 7 1.7 2.0 Light snow. Mist.
2019-Dec-11 09:10 340 8 1.5 2.0 Light snow. Mist.
2019-Dec-11 09:05 330 8 1.5 2.0 Light snow. Mist.
2019-Dec-11 09:02 340 11 gusting 17 1.5 2.2 Light snow. Mist.
2019-Dec-11 09:00 350 8 1.5 2.0 Light snow. Mist.
2019-Dec-11 08:55 360 9 1.7 2.0 Light snow. Mist.
2019-Dec-11 08:53 010 8 1.7 2.2 Light snow. Mist.
2019-Dec-11 08:50 010 11 2.6 2.0 Light snow. Mist.
2019-Dec-11 08:45 360 8 3.5 2.0 Light snow. Mist.
2019-Dec-11 08:40 340 7 4.3 2.0 Light snow. Mist.
2019-Dec-11 08:35 350 6 4.3 2.0 Light snow. Mist.
2019-Dec-11 08:33 350 5 3.5 2.2 Light snow. Mist.
2019-Dec-11 08:30 360 6 3.0 2.0 Light snow. Mist.
2019-Dec-11 08:25 360 7 2.6 2.0 Light snow. Mist.
2019-Dec-11 08:20 360 7 3.0 2.0 Light snow. Mist.
2019-Dec-11 08:15 360 6 3.5 2.0 Light snow. Mist.
2019-Dec-11 08:13 360 8 3.5 2.2 Light snow. Mist.
2019-Dec-11 08:10 360 7 4.3 3.0 Light snow. Mist.
2019-Dec-11 08:05 350 7 6.1 3.0
2019-Dec-11 08:00 350 8 7.0 3.0
2019-Dec-11 07:55 340 9 7.0 3.0
2019-Dec-11 07:53 340 6 6.1 2.8
2019-Dec-11 07:51 350 8 6.1 3.0 Light snow.
2019-Dec-11 07:50 350 11 5.2 3.0 Light snow. Mist.
2019-Dec-11 07:45 340 8 4.3 3.0 Light snow. Mist.
2019-Dec-11 07:40 350 8 4.3 3.0 Light snow.
2019-Dec-11 07:35 360 10 5.2 3.0 Precipitation. Mist.
2019-Dec-11 07:30 350 9 5.2 3.0 Light rain. Mist.
2019-Dec-11 07:25 340 6 4.3 3.0 Light rain. Mist.
2019-Dec-11 07:20 340 7 4.3 3.0 Light snow. Mist.
2019-Dec-11 07:15 340 7 4.3 3.0 Light snow. Mist.
2019-Dec-11 07:10 340 7 4.3 3.0 Light snow. Mist.
2019-Dec-11 07:09 350 6 5.2 3.3 Light snow. Mist.
2019-Dec-11 07:05 340 5 6.1 3.0 Light snow.
2019-Dec-11 07:00 340 5 8.7 3.0 Light rain.
2019-Dec-11 06:55 340 6 8.7 3.0 Light rain.
2019-Dec-11 06:53 340 7 8.7 3.3 Light rain.
2019-Dec-11 06:50 340 7 7.0 3.0 Light rain.
2019-Dec-11 06:45 350 7 6.1 3.0 Light rain.
2019-Dec-11 06:40 010 11 6.1 4.0 Light rain.
2019-Dec-11 06:35 360 10 6.1 4.0 Light rain.
2019-Dec-11 06:30 350 8 5.2 4.0 Light rain.
2019-Dec-11 06:25 350 10 5.2 4.0 Light rain.
2019-Dec-11 06:20 350 11 7.0 4.0 Light rain.
2019-Dec-11 06:15 350 11 7.0 4.0 Light rain.
2019-Dec-11 06:10 350 11 6.1 4.0 Light rain.
2019-Dec-11 06:05 360 10 5.2 4.0 Light rain.
2019-Dec-11 06:03 360 12 4.3 4.4 Light rain.
2019-Dec-11 06:00 360 13 4.3 4.0 Light rain.
2019-Dec-11 05:55 010 12 4.3 5.0 Light rain.
2019-Dec-11 05:53 010 11 5.2 5.0 Light rain.
2019-Dec-11 05:50 010 10 gusting 15 5.2 5.0 Light rain. Mist.
2019-Dec-11 05:45 010 9 7.0 6.0 Light rain.
2019-Dec-11 05:44 020 9 7.8 5.6 Light rain.
2019-Dec-11 05:40 010 11 7.8 6.0 Light rain.
2019-Dec-11 05:35 010 10 7.0 6.0 Light rain.
2019-Dec-11 05:30 010 11 5.2 6.0 Light rain.
2019-Dec-11 05:25 360 12 5.2 6.0 Light rain.
2019-Dec-11 05:20 010 12 gusting 17 6.1 6.0 Light rain.
2019-Dec-11 05:15 350 5 7.0 7.0 Light rain.
2019-Dec-11 05:10 330 6 6.1 7.0 Light rain.
2019-Dec-11 05:05 320 8 6.1 7.0 Light rain.
2019-Dec-11 05:01 330 8 gusting 14 6.9 7.2
2019-Dec-11 05:00 330 9 gusting 14 7.0 7.0
2019-Dec-11 04:55 340 9 8.7 7.0
2019-Dec-11 04:53 340 6 8.7 7.2
2019-Dec-11 04:50 320 7 7.8 8.0 Light rain.
2019-Dec-11 04:45 330 7 5.2 8.0 Light rain.
2019-Dec-11 04:40 330 5 5.2 8.0 Light rain.
2019-Dec-11 04:35 310 4 5.2 8.0 Light rain.
2019-Dec-11 04:30 310 4 4.3 8.0 Light rain.
2019-Dec-11 04:25 290 5 4.3 8.0 Rain.
2019-Dec-11 04:24 4.3 8.3 Rain.
2019-Dec-11 04:20 280 5 5.2 8.0 Light rain.
2019-Dec-11 04:15 280 5 7.0 8.0 Light rain.
2019-Dec-11 04:10 280 4 7.0 8.0 Light rain.
2019-Dec-11 04:05 290 4 7.8 8.0 Light rain.
2019-Dec-11 04:00 260 4 8.7 8.0 Light rain.
2019-Dec-11 03:55 270 6 7.8 8.0 Light rain.
2019-Dec-11 03:53 7.8 8.3 Light rain.
2019-Dec-11 03:50 270 4 7.0 8.0 Light rain.
2019-Dec-11 03:45 250 4 7.8 8.0
2019-Dec-11 03:40 270 4 8.7 9.0
2019-Dec-11 03:35 270 5 8.7 9.0
2019-Dec-11 03:30 280 5 7.8 9.0 Light rain.
2019-Dec-11 03:25 280 5 7.8 9.0 Light rain.
2019-Dec-11 03:20 290 4 7.8 9.0 Light rain.
2019-Dec-11 03:15 280 6 8.7 9.0 Light rain.
2019-Dec-11 03:10 290 7 8.7 9.0 Light rain.
2019-Dec-11 03:05 280 6 8.7 9.0 Light rain.
2019-Dec-11 03:00 270 6 7.8 9.0 Light rain.
2019-Dec-11 02:55 280 6 8.7 9.0 Light rain.
2019-Dec-11 02:53 280 6 8.7 9.4 Light rain.
2019-Dec-11 02:50 280 7 8.7 9.0
2019-Dec-11 02:45 280 8 8.7 9.0 Light rain.
2019-Dec-11 02:40 290 7 8.710.0 Light rain.
2019-Dec-11 02:35 300 8 8.710.0
2019-Dec-11 02:30 300 7 8.710.0
2019-Dec-11 02:25 300 9 8.710.0 Light rain.
2019-Dec-11 02:20 290 10 8.710.0 Light rain.
2019-Dec-11 02:15 300 9 gusting 14 8.711.0 Light rain.
2019-Dec-11 02:10 290 11 gusting 20 8.711.0 Light rain.
2019-Dec-11 02:05 300 9 8.711.0 Light rain.
2019-Dec-11 02:00 290 8 8.711.0 Light rain.
2019-Dec-11 01:55 280 6 8.711.0 Light rain.
2019-Dec-11 01:53 290 6 8.710.6 Light rain.
2019-Dec-11 01:50 280 4 8.711.0 Light rain.
2019-Dec-11 01:45 280 5 8.711.0 Light rain.
2019-Dec-11 01:40 270 3 8.711.0
2019-Dec-11 01:35 280 5 8.711.0
2019-Dec-11 01:30 300 4 8.711.0
2019-Dec-11 01:25 300 4 8.711.0
2019-Dec-11 01:20 300 5 8.711.0
2019-Dec-11 01:15 320 5 8.711.0
2019-Dec-11 01:10 320 6 8.711.0
2019-Dec-11 01:05 320 6 8.711.0
2019-Dec-11 01:00 310 10 8.711.0
2019-Dec-11 00:55 310 10 gusting 16 8.711.0
2019-Dec-11 00:53 320 12 gusting 19 8.711.1
2019-Dec-11 00:50 320 10 gusting 19 8.712.0
2019-Dec-11 00:45 320 10 gusting 16 8.712.0
2019-Dec-11 00:40 330 8 8.712.0
2019-Dec-11 00:35 310 9 gusting 14 8.712.0
2019-Dec-11 00:30 320 8 8.712.0
2019-Dec-11 00:25 310 10 gusting 15 8.712.0
2019-Dec-11 00:21 300 6 8.712.2
2019-Dec-11 00:20 300 6 8.712.0
2019-Dec-11 00:15 300 4 8.711.0
2019-Dec-11 00:10 280 3 8.712.0
2019-Dec-11 00:05 250 5 8.712.0
2019-Dec-11 00:00 240 5 8.713.0
2019-Dec-10 23:55 230 5 7.812.0
2019-Dec-10 23:53 240 4 7.812.2 Light rain.
2019-Dec-10 23:50 230 5 7.012.0 Light rain.
2019-Dec-10 23:45 240 5 6.112.0 Light rain.
2019-Dec-10 23:40 240 8 5.212.0 Light rain. Mist.
2019-Dec-10 23:35 240 6 6.112.0 Light rain.
2019-Dec-10 23:30 230 8 6.112.0
2019-Dec-10 23:25 230 8 6.112.0
2019-Dec-10 23:20 230 7 6.111.0
2019-Dec-10 23:15 230 9 6.112.0
2019-Dec-10 23:10 230 7 6.111.0
2019-Dec-10 23:05 230 9 6.112.0
2019-Dec-10 23:00 230 9 gusting 14 6.112.0
2019-Dec-10 22:55 220 8 6.112.0
2019-Dec-10 22:53 220 8 6.112.2
2019-Dec-10 22:50 220 8 6.112.0
2019-Dec-10 22:45 210 9 5.212.0 Mist.
2019-Dec-10 22:40 210 9 5.212.0 Mist.
2019-Dec-10 22:35 210 9 5.213.0 Mist.
2019-Dec-10 22:30 220 8 5.213.0 Light rain. Mist.
2019-Dec-10 22:25 210 8 4.313.0 Light rain. Mist.
2019-Dec-10 22:20 220 8 4.313.0 Mist.
2019-Dec-10 22:15 230 6 4.312.0 Light rain. Mist.
2019-Dec-10 22:10 230 7 3.512.0 Light rain. Mist.
2019-Dec-10 22:05 230 7 3.512.0 Light rain. Mist.
2019-Dec-10 22:00 230 7 3.512.0 Light rain. Mist.
2019-Dec-10 21:55 230 7 4.312.0 Light rain. Mist.
2019-Dec-10 21:53 230 6 5.212.2 Light rain. Mist.
2019-Dec-10 21:50 230 7 5.212.0 Light rain. Mist.
2019-Dec-10 21:45 230 5 5.212.0 Light rain. Mist.
2019-Dec-10 21:40 230 6 5.212.0 Light rain. Mist.
2019-Dec-10 21:35 230 5 5.212.0 Light rain. Mist.
2019-Dec-10 21:30 220 5 5.212.0 Light rain. Mist.
2019-Dec-10 21:25 210 5 6.112.0 Light rain.
2019-Dec-10 21:20 210 5 6.113.0
2019-Dec-10 21:15 210 5 6.113.0
2019-Dec-10 21:10 200 5 5.213.0 Mist.
2019-Dec-10 21:05 210 5 5.213.0 Mist.
2019-Dec-10 21:00 210 5 5.213.0 Mist.
2019-Dec-10 20:55 220 4 5.213.0 Mist.
2019-Dec-10 20:53 220 4 5.212.8 Mist.
2019-Dec-10 20:50 230 4 4.312.0 Mist.
2019-Dec-10 20:45 230 4 4.312.0 Mist.
2019-Dec-10 20:40 230 4 3.512.0 Mist.
2019-Dec-10 20:38 240 4 3.511.7 Mist.
2019-Dec-10 20:35 240 4 3.511.0 Mist.
2019-Dec-10 20:30 250 4 3.512.0 Mist.
2019-Dec-10 20:25 240 4 3.512.0 Mist.
2019-Dec-10 20:20 230 3 3.512.0 Light rain. Mist.
2019-Dec-10 20:15 220 3 2.612.0 Light rain. Mist.
2019-Dec-10 20:10 210 4 3.512.0 Mist.
2019-Dec-10 20:05 200 4 3.512.0 Mist.
2019-Dec-10 20:00 220 4 3.512.0 Mist.
2019-Dec-10 19:55 220 5 3.512.0 Mist.
2019-Dec-10 19:53 240 6 3.511.7 Mist.
2019-Dec-10 19:50 220 5 3.512.0 Mist.
2019-Dec-10 19:45 210 6 3.512.0 Mist.
2019-Dec-10 19:40 210 6 3.512.0 Mist.
2019-Dec-10 19:35 210 7 4.312.0 Mist.
2019-Dec-10 19:30 220 8 4.312.0 Mist.
2019-Dec-10 19:25 220 8 3.512.0 Light rain. Mist.
2019-Dec-10 19:20 220 9 gusting 14 3.512.0 Light rain. Mist.
2019-Dec-10 19:15 230 6 3.512.0 Light rain. Mist.
2019-Dec-10 19:10 220 7 3.012.0 Light rain. Mist.
2019-Dec-10 19:05 230 9 2.612.0 Light rain. Mist.
2019-Dec-10 19:00 220 8 2.612.0 Light rain. Mist.
2019-Dec-10 18:55 230 9 2.612.0 Light rain. Mist.
2019-Dec-10 18:53 230 8 2.612.2 Light rain. Mist.
2019-Dec-10 18:50 220 7 2.612.0 Light rain. Mist.
2019-Dec-10 18:45 220 8 2.612.0 Light rain. Mist.
2019-Dec-10 18:40 230 8 2.212.0 Light rain. Mist.
2019-Dec-10 18:35 220 8 2.212.0 Light rain. Mist.
2019-Dec-10 18:32 220 7 2.211.7 Light rain. Mist.
2019-Dec-10 18:30 220 7 2.212.0 Light rain. Mist.
2019-Dec-10 18:25 210 8 2.612.0 Light rain. Mist.
2019-Dec-10 18:20 210 9 2.612.0 Light rain. Mist.
2019-Dec-10 18:15 210 8 2.612.0 Light rain. Mist.
2019-Dec-10 18:10 200 8 3.012.0 Light rain. Mist.
2019-Dec-10 18:05 210 6 4.312.0 Light rain. Mist.
2019-Dec-10 18:00 200 8 5.212.0 Light rain. Mist.